| time (UTC) | temp F | wind direction | speed MPH | gust MPH | rain 1hr in | rain 24hr in | rain mn in | humidity % | barometer mb |
| 20260508140007 | 63 | 85 | 2.0 | 5.0 | 0.00 | 0.00 | 0.00 | 31 | 1010.4 |
| 20260508134510 | 58 | 131 | 2.0 | 7.0 | 0.00 | 0.00 | 0.00 | 37 | 1010.3 |
| 20260508133003 | 52 | 145 | 3.0 | 6.0 | 0.00 | 0.00 | 0.00 | 43 | 1010.2 |
| 20260508131502 | 50 | 138 | 4.0 | 6.0 | 0.00 | 0.00 | 0.00 | 45 | 1010.2 |
| 20260508130002 | 49 | 152 | 4.0 | 6.0 | 0.00 | 0.00 | 0.00 | 45 | 1010.2 |
| 20260508124600 | 49 | 153 | 3.0 | 5.0 | 0.00 | 0.00 | 0.00 | 45 | 1010.3 |
| 20260508123059 | 49 | 145 | 2.0 | 6.0 | 0.00 | 0.00 | 0.00 | 46 | 1010.3 |
| 20260508121558 | 49 | 150 | 3.0 | 6.0 | 0.00 | 0.00 | 0.00 | 45 | 1010.1 |
| 20260508120056 | 49 | 141 | 1.0 | 5.0 | 0.00 | 0.00 | 0.00 | 45 | 1009.8 |
| 20260508114605 | 50 | 153 | 2.0 | 7.0 | 0.00 | 0.00 | 0.00 | 44 | 1009.7 |
| 20260508113057 | 50 | 138 | 3.0 | 5.0 | 0.00 | 0.00 | 0.00 | 43 | 1009.7 |
| 20260508111601 | 51 | 147 | 4.0 | 7.0 | 0.00 | 0.00 | 0.00 | 41 | 1009.7 |
| 20260508110048 | 51 | 149 | 4.0 | 7.0 | 0.00 | 0.00 | 0.00 | 42 | 1010.0 |
| 20260508104547 | 51 | 142 | 3.0 | 7.0 | 0.00 | 0.00 | 0.00 | 43 | 1010.1 |
| 20260508103046 | 50 | 133 | 4.0 | 6.0 | 0.00 | 0.00 | 0.00 | 43 | 1010.1 |
| 20260508101544 | 50 | 118 | 4.0 | 6.0 | 0.00 | 0.00 | 0.00 | 43 | 1010.1 |
| 20260508100042 | 52 | 148 | 3.0 | 8.0 | 0.00 | 0.00 | 0.00 | 41 | 1010.2 |
| 20260508094539 | 52 | 119 | 3.0 | 6.0 | 0.00 | 0.00 | 0.00 | 40 | 1010.2 |
| 20260508093036 | 52 | 182 | 3.0 | 6.0 | 0.00 | 0.00 | 0.00 | 41 | 1010.3 |
| 20260508091538 | 53 | 149 | 4.0 | 6.0 | 0.00 | 0.00 | 0.00 | 40 | 1010.5 |
| 20260508090031 | 53 | 149 | 3.0 | 8.0 | 0.00 | 0.00 | 0.00 | 39 | 1010.7 |
| 20260508084529 | 54 | 140 | 3.0 | 10.0 | 0.00 | 0.00 | 0.00 | 39 | 1010.8 |
| 20260508083028 | 53 | 158 | 3.0 | 7.0 | 0.00 | 0.00 | 0.00 | 39 | 1011.0 |
| 20260508081529 | 53 | 136 | 3.0 | 7.0 | 0.00 | 0.00 | 0.00 | 40 | 1011.1 |
| 20260508080022 | 53 | 120 | 4.0 | 6.0 | 0.00 | 0.00 | 0.00 | 40 | 1011.3 |
| 20260508074522 | 54 | 116 | 3.0 | 9.0 | 0.00 | 0.00 | 0.00 | 38 | 1011.4 |
| 20260508073018 | 57 | 116 | 4.0 | 11.0 | 0.00 | 0.00 | 0.00 | 36 | 1011.5 |
| 20260508071517 | 55 | 102 | 3.0 | 8.0 | 0.00 | 0.00 | 0.00 | 38 | 1011.7 |
| 20260508070016 | 57 | 105 | 4.0 | 9.0 | 0.00 | 0.00 | 0.00 | 36 | 1011.7 |
| 20260508064524 | 53 | 72 | 3.0 | 7.0 | 0.00 | 0.00 | 0.00 | 41 | 1011.8 |
| 20260508063012 | 53 | 139 | 3.0 | 7.0 | 0.00 | 0.00 | 0.00 | 42 | 1011.8 |
| 20260508061509 | 54 | 141 | 3.0 | 7.0 | 0.00 | 0.00 | 0.00 | 40 | 1011.9 |
| 20260508060007 | 56 | 139 | 3.0 | 6.0 | 0.00 | 0.00 | 0.00 | 38 | 1012.0 |
| 20260508054509 | 58 | 149 | 4.0 | 9.0 | 0.00 | 0.00 | 0.00 | 36 | 1012.0 |
| 20260508053004 | 56 | 167 | 3.0 | 6.0 | 0.00 | 0.00 | 0.00 | 38 | 1012.1 |
| 20260508051505 | 58 | 127 | 4.0 | 9.0 | 0.00 | 0.00 | 0.00 | 36 | 1012.1 |
| 20260508050002 | 55 | 99 | 3.0 | 9.0 | 0.00 | 0.00 | 0.00 | 38 | 1012.3 |
| 20260508044502 | 54 | 147 | 3.0 | 6.0 | 0.00 | 0.00 | 0.00 | 40 | 1012.3 |
| 20260508043003 | 53 | 123 | 1.0 | 6.0 | 0.00 | 0.00 | 0.00 | 42 | 1012.3 |
| 20260508041501 | 53 | 135 | 2.0 | 5.0 | 0.00 | 0.00 | 0.00 | 43 | 1012.2 |
| 20260508040100 | 53 | 170 | 2.0 | 4.0 | 0.00 | 0.00 | 0.00 | 43 | 1012.3 |
| 20260508034602 | 54 | 141 | 2.0 | 5.0 | 0.00 | 0.00 | 0.00 | 42 | 1012.2 |
| 20260508033103 | 54 | 125 | 2.0 | 5.0 | 0.00 | 0.00 | 0.00 | 43 | 1012.1 |
| 20260508031600 | 54 | 153 | 2.0 | 5.0 | 0.00 | 0.00 | 0.00 | 42 | 1011.8 |
| 20260508030058 | 55 | 150 | 2.0 | 4.0 | 0.00 | 0.00 | 0.00 | 40 | 1011.7 |
| 20260508024604 | 56 | 148 | 1.0 | 5.0 | 0.00 | 0.00 | 0.00 | 41 | 1011.7 |
| 20260508023058 | 57 | 148 | 1.0 | 3.0 | 0.00 | 0.00 | 0.00 | 41 | 1011.7 |
| 20260508021609 | 62 | 147 | 0.0 | 2.0 | 0.00 | 0.00 | 0.00 | 35 | 1011.5 |
| 20260508020058 | 66 | 290 | 0.0 | 1.0 | 0.00 | 0.00 | 0.00 | 28 | 1011.7 |
| 20260508014555 | 66 | 278 | 0.0 | 4.0 | 0.00 | 0.00 | 0.00 | 29 | 1011.5 |
| 20260508013054 | 68 | 261 | 1.0 | 4.0 | 0.00 | 0.00 | 0.00 | 27 | 1011.8 |
| 20260508011606 | 67 | 22 | 0.0 | 4.0 | 0.00 | 0.00 | 0.00 | 27 | 1011.8 |
| 20260508010050 | 67 | 4 | 2.0 | 6.0 | 0.00 | 0.00 | 0.00 | 28 | 1012.0 |
| 20260508004556 | 68 | 321 | 2.0 | 6.0 | 0.00 | 0.00 | 0.00 | 26 | 1012.0 |
| 20260508003048 | 68 | 265 | 4.0 | 11.0 | 0.00 | 0.00 | 0.00 | 27 | 1012.1 |
| 20260508001548 | 71 | 274 | 2.0 | 5.0 | 0.00 | 0.00 | 0.00 | 25 | 1012.3 |
| 20260508000045 | 67 | 255 | 2.0 | 6.0 | 0.00 | 0.00 | 0.00 | 28 | 1012.5 |
| 20260507234550 | 68 | 322 | 2.0 | 7.0 | 0.00 | 0.00 | 0.00 | 27 | 1012.8 |
| 20260507233042 | 70 | 300 | 3.0 | 8.0 | 0.00 | 0.00 | 0.00 | 26 | 1012.7 |
| 20260507231548 | 70 | 289 | 2.0 | 9.0 | 0.00 | 0.00 | 0.00 | 27 | 1012.8 |
| 20260507230039 | 69 | 249 | 4.0 | 11.0 | 0.00 | 0.00 | 0.00 | 27 | 1013.0 |
| 20260507224539 | 70 | 277 | 6.0 | 10.0 | 0.00 | 0.00 | 0.00 | 26 | 1013.0 |
| 20260507223135 | 70 | 155 | 3.0 | 14.0 | 0.00 | 0.00 | 0.00 | 27 | 1013.2 |
| 20260507221532 | 69 | 297 | 6.0 | 13.0 | 0.00 | 0.00 | 0.00 | 27 | 1013.5 |
| 20260507220030 | 69 | 269 | 6.0 | 11.0 | 0.00 | 0.00 | 0.00 | 26 | 1013.7 |
| 20260507214527 | 69 | 214 | 3.0 | 9.0 | 0.00 | 0.00 | 0.00 | 27 | 1014.0 |
| 20260507213024 | 69 | 293 | 6.0 | 11.0 | 0.00 | 0.00 | 0.00 | 26 | 1014.4 |
| 20260507211522 | 68 | 262 | 4.0 | 9.0 | 0.00 | 0.00 | 0.00 | 25 | 1014.7 |
| 20260507210020 | 69 | 275 | 1.0 | 9.0 | 0.00 | 0.00 | 0.00 | 26 | 1015.0 |
| 20260507204517 | 68 | 135 | 1.0 | 8.0 | 0.00 | 0.00 | 0.00 | 26 | 1015.3 |
| 20260507203016 | 67 | 331 | 2.0 | 9.0 | 0.00 | 0.00 | 0.00 | 24 | 1015.4 |
| 20260507201513 | 66 | 271 | 2.0 | 7.0 | 0.00 | 0.00 | 0.00 | 25 | 1016.1 |
| 20260507200011 | 65 | 231 | 2.0 | 10.0 | 0.00 | 0.00 | 0.00 | 26 | 1016.4 |
| 20260507194508 | 66 | 290 | 4.0 | 9.0 | 0.00 | 0.00 | 0.00 | 26 | 1016.7 |
| 20260507193005 | 66 | 297 | 2.0 | 9.0 | 0.00 | 0.00 | 0.00 | 26 | 1017.0 |
| 20260507191505 | 66 | 271 | 2.0 | 8.0 | 0.00 | 0.00 | 0.00 | 26 | 1016.9 |
| 20260507190003 | 64 | 297 | 3.0 | 7.0 | 0.00 | 0.00 | 0.00 | 27 | 1017.3 |
| 20260507184602 | 62 | 154 | 1.0 | 10.0 | 0.00 | 0.00 | 0.00 | 28 | 1017.4 |
| 20260507183057 | 63 | 316 | 3.0 | 9.0 | 0.00 | 0.00 | 0.00 | 28 | 1018.0 |
| 20260507181555 | 62 | 285 | 4.0 | 9.0 | 0.00 | 0.00 | 0.00 | 28 | 1018.3 |
| 20260507180052 | 62 | 259 | 1.0 | 11.0 | 0.00 | 0.00 | 0.00 | 30 | 1018.5 |
| 20260507174558 | 61 | 307 | 3.0 | 6.0 | 0.00 | 0.00 | 0.00 | 28 | 1019.0 |
| 20260507173048 | 60 | 264 | 1.0 | 7.0 | 0.00 | 0.00 | 0.00 | 30 | 1019.0 |
| 20260507171559 | 59 | 300 | 5.0 | 9.0 | 0.00 | 0.00 | 0.00 | 29 | 1019.4 |
| 20260507170047 | 59 | 307 | 5.0 | 8.0 | 0.00 | 0.00 | 0.00 | 31 | 1019.4 |
| 20260507164543 | 59 | 274 | 4.0 | 6.0 | 0.00 | 0.00 | 0.00 | 30 | 1019.6 |
| 20260507163041 | 57 | 350 | 3.0 | 11.0 | 0.00 | 0.00 | 0.00 | 31 | 1019.8 |
| 20260507161541 | 56 | 217 | 3.0 | 11.0 | 0.00 | 0.00 | 0.00 | 32 | 1019.9 |
| 20260507160044 | 57 | 295 | 2.0 | 7.0 | 0.00 | 0.00 | 0.00 | 32 | 1019.7 |
| 20260507154539 | 57 | 320 | 3.0 | 9.0 | 0.00 | 0.00 | 0.00 | 34 | 1020.0 |
| 20260507153038 | 57 | 274 | 0.0 | 5.0 | 0.00 | 0.00 | 0.00 | 34 | 1020.1 |
| 20260507151538 | 56 | 309 | 1.0 | 6.0 | 0.00 | 0.00 | 0.00 | 35 | 1020.3 |
| 20260507150038 | 56 | 262 | 1.0 | 5.0 | 0.00 | 0.00 | 0.00 | 33 | 1020.5 |
| 20260507144552 | 57 | 129 | 0.0 | 2.0 | 0.00 | 0.04 | 0.00 | 33 | 1020.6 |
| 20260507143031 | 53 | 98 | 0.0 | 3.0 | 0.00 | 0.04 | 0.00 | 33 | 1020.9 |
| 20260507141528 | 51 | 129 | 1.0 | 4.0 | 0.00 | 0.04 | 0.00 | 39 | 1021.1 |